User: anonymous   Login
Location: Voyageurs National Park
(48.5020°N, 92.9292°W)
Time: 11:37:18
(UTC-05:00)
Language:

Terra - Orbit

View from above orbital plane
View from above orbital plane
View from above satellite
View from above satellite

Ground track
Ground track

The orbit data is extracted from the following two-line orbital elements,

1 25994U 99068A   17147.19199101 -.00000634 +00000-0 -13066-3 0  9996
2 25994 098.2107 222.5362 0001253 091.0382 269.0891 14.57110110927615
Epoch (UTC): 27 May 2017 04:36:28
Eccentricity: 0.0001253
inclination: 98.2107°
perigee height: 701 km
apogee height: 703 km
right ascension of ascending node: 222.5362°
argument of perigee: 91.0382°
revolutions per day: 14.57110110
mean anomaly at epoch: 269.0891°
orbit number at epoch: 92761

The dashed part of the orbit path shows where the satellite is in the earth's shadow,  

DLR